Location: Dulzura
(32.6442°N, 116.7814°W)
Time: 19:03:54
(UTC+00:00)

BREEZE-M DEB (TANK) - Pass Details

Date: 07 December 2021
Orbit: 315 x 12019 km, 49.7° (Epoch: 16 January)

Event Time Altitude Azimuth Distance (km) Brightness Sun altitude
Exits shadow 13:25:22 12° 309° (NW) 6,277 6.9 -14.7°
Maximum altitude 13:39:00 62° 234° (SW) 1,315 3.8 -11.9°
Drops below altitude 10° 13:43:21 10° 152° (SSE) 2,087 5.8 -11.1°
Sets 13:44:47 0° 148° (SSE) 2,689 6.6 -10.8°
